www.pogodaiklimat.ru

Погода и климат >> Архив погоды >> Дания >> Копенгаген


АРХИВ ПОГОДЫ в Копенгагене

Время (UTC), дата Ветер
(напр.,м/с)
 
Видим.   Явления Облачность Т
(С)
Тd
(С)
f
(%)
Тe
(С)
Тes
(С)
Комфортность P
(гПа)
Po
(гПа)
Тmin
(С)
Tmax
(С)
R
(мм)
R24
(мм)
S
(см)
10 15.05 СВ 2 65 км ясно +14.3 +0.3 38 +14 +28 опасность
простуды
1030.0 1029.4
11 15.05 Ю 6 60 км ясно +12.5 +1.2 46 +10 +17 по сезону 1029.8 1029.1
12 15.05 Ю 5
{9}
65 км ясно +12.8 +4.6 57 +11 +18 по сезону 1029.5 1028.9
13 15.05 Ю 5 >70 км ясно +12.8 +4.0 55 +11 +17 тепло 1029.3 1028.6
14 15.05 Ю 5 65 км ясно +12.6 +1.8 48 +11 +16 по сезону 1029.0 1028.3
15 15.05 Ю 5 >70 км ясно +11.9 +2.0 51 +10 +13 по сезону 1028.5 1027.9
16 15.05 Ю 4 >70 км ясно +11.8 +1.7 50 +10 +13 тепло 1028.6 1027.9
17 15.05 Ю 5 65 км ясно +10.7 +1.6 53 +8 +10 по сезону 1028.5 1027.9
18 15.05 Ю 3 >70 км ясно +9.9 +3.1 63 +8 +8 по сезону 1028.5 1027.9 +9.6 +15.0
19 15.05 ЮЗ 2 >70 км ясно +8.6 +2.4 65 +7 +7 тепло 1028.6 1028.0
20 15.05 З 2 >70 км ясно +7.9 +2.5 69 +7 +7 по сезону 1028.6 1027.9
21 15.05 З 2 >70 км ясно +7.4 +2.6 72 +6 +6 по сезону 1028.3 1027.6
22 15.05 З 2 >70 км 1/0
[]
+7.7 +2.9 72 +6 +6 тепло 1027.9 1027.3
23 15.05 СЗ 2 >70 км 8/0
[]
+7.4 +2.6 72 +5 +5 по сезону 1027.4 1026.7
00 16.05 С 2 >70 км 10/0 2000 м
[]
+8.5 +2.6 66 +7 +7 по сезону 1026.9 1026.3
01 16.05 С 4 >70 км 6/0
[]
+9.5 +6.1 79 +7 +7 тепло 1026.5 1025.8
02 16.05 СВ 5 >70 км ясно +8.9 +3.7 70 +6 +6 по сезону 1026.1 1025.5
03 16.05 СВ 6 >70 км 1/0
[]
+8.3 +0.3 57 +5 +5 по сезону 1025.8 1025.1
04 16.05 СВ 6 >70 км 1/0
[]
+8.1 +1.0 61 +4 +4 по сезону 1025.1 1024.4
05 16.05 СВ 7 >70 км 8/0
[]
+8.8 +0.6 56 +5 +5 по сезону 1024.8 1024.2
06 16.05 С 6 >70 км ясно +9.2 +1.2 57 +6 +7 прохладно 1024.6 1024.0 +6.7 +9.9
07 16.05 С 7 >70 км ясно +10.1 +2.2 58 +7 +9 по сезону 1024.2 1023.6
08 16.05 С 6 65 км ясно +11.8 +3.1 55 +9 +13 по сезону 1023.9 1023.3
09 16.05 С 6
{10}
60 км ясно +13.7 +3.9 52 +12 +16 по сезону 1023.2 1022.6
10 16.05 СВ 6 55 км ясно +16.2 +5.3 48 +15 +21 тепло 1022.7 1022.0
11 16.05 СВ 7 60 км ясно +18.3 +3.4 37 +18 +21 тепло 1022.4 1021.8
12 16.05 СВ 7
{10}
55 км ясно +20.0 +4.2 35 +20 +24 тепло 1022.0 1021.4
13 16.05 В 8 55 км ясно +19.0 +3.4 35 +19 +21 тепло 1021.5 1020.9
14 16.05 В 8 65 км ясно +18.8 +5.1 40 +18 +20 тепло 1021.0 1020.4
15 16.05 В 8 60 км ясно +18.4 +4.5 40 +18 +19 тепло 1020.6 1020.0
16 16.05 В 7 65 км ясно +17.9 +4.2 40 +17 +19 тепло 1020.4 1019.8
17 16.05 В 8 65 км ясно +16.5 +4.3 44 +15 +15 тепло 1020.2 1019.6
18 16.05 В 6 >70 км {дымка} ясно +15.4 +4.2 47 +14 +14 тепло 1020.3 1019.7 +9.2 +20.5
19 16.05 В 6 >70 км ясно +14.9 +3.3 46 +13 +13 тепло 1020.2 1019.6
20 16.05 В 5 >70 км 9/9 1500 м
[]
+14.1 +3.7 50 +13 +13 тепло 1020.2 1019.6
21 16.05 В 4 45 км слаб. дождь 10/10 1500 м
[]
+12.9 +6.0 63 +11 +11 тепло 1020.2 1019.6 0.0
22 16.05 СВ 5 >70 км в посл. час дождь {ливн. осадки} 10/10 1500 м
[]
+12.2 +5.8 65 +10 +10 тепло 1019.4 1018.8 0.2
23 16.05 СВ 6 >70 км слаб. ливневой дождь 10/10 1470 м
[]
+12.1 +4.9 61 +10 +10 тепло 1018.6 1018.0
00 17.05 СВ 6 >70 км {ливн. осадки} 10/10 1410 м
[]
+12.4 +3.9 56 +10 +10 тепло 1017.8 1017.2 0.2
01 17.05 СВ 7 >70 км 10/10 1140 м
[]
+12.4 +4.1 57 +10 +10 тепло 1017.1 1016.5
02 17.05 В 6 >70 км 10/10 800 м
[]
+12.1 +5.5 64 +10 +10 тепло 1016.7 1016.1
03 17.05 В 7 60 км 10/10 540 м
[]
+11.6 +6.6 71 +9 +9 по сезону 1016.4 1015.8
04 17.05 В 7 45 км слаб. ливневой дождь 10/10 420 м
[]
+10.6 +8.5 87 +7 +7 тепло 1016.5 1015.9 0.1
05 17.05 В 7 55 км {ливн. осадки} 10/10 400 м
[]
+11.0 +8.0 82 +8 +8 по сезону 1016.1 1015.5
06 17.05 В 6 21 км слаб. дождь 10/10 500 м
[]
+10.9 +8.4 85 +8 +8 по сезону 1016.1 1015.4 +10.1 +15.5 0.1
07 17.05 СВ 4 9000 м дождь 10/10 480 м
[]
+10.1 +8.7 91 +7 +7 по сезону 1015.8 1015.2 3
08 17.05 СВ 5 26 км слаб. дождь 10/10 700 м
[]
+11.0 +9.4 90 +8 +8 по сезону 1015.4 1014.7 2
09 17.05 СВ 7 10 км слаб. дождь 10/10 480 м
[]
+10.8 +9.1 89 +7 +7 прохладно 1014.8 1014.2 7
10 17.05 СВ 8 8000 м слаб. дождь 10/10 360 м
[]
+10.4 +9.6 95 +6 +6 прохладно 1014.4 1013.7 0.3
11 17.05 СВ 6 26 км слаб. ливневой дождь 10/10 360 м
[]
+11.2 +10.0 92 +8 +8 прохладно 1014.0 1013.4 0.3
12 17.05 В 6 45 км слаб. дождь 10/10 360 м
[]
+11.2 +10.2 94 +8 +8 холодно 1014.0 1013.4 2
13 17.05 В 6 3000 м слаб. ливневой дождь 10/10 150 м
[]
+10.6 +10.0 96 +7 +7 по сезону 1014.1 1013.5 0.7
14 17.05 В 7 65 км в посл. час дождь {ливн. осадки} 10/10 270 м
[]
+10.9 +9.3 90 +7 +7 прохладно 1013.8 1013.2 0.5
15 17.05 В 8 >70 км 10/10 330 м
[]
+10.8 +9.3 90 +7 +7 прохладно 1013.6 1012.9 1
16 17.05 В 7 >70 км 10/10 300 м
[]
+10.6 +8.9 89 +7 +7 по сезону 1013.3 1012.7
17 17.05 В 7 >70 км 10/10 360 м
[]
+10.6 +9.0 90 +7 +7 по сезону 1012.9 1012.2
18 17.05 В 6 >70 км 10/10 360 м
[]
+10.6 +8.8 89 +7 +7 прохладно 1012.7 1012.1 +10.1 +11.6
19 17.05 В 5 >70 км 10/10 330 м
[]
+10.6 +8.8 89 +8 +8 тепло 1012.8 1012.2
20 17.05 В 3 >70 км 10/10 300 м
[]
+10.5 +8.8 89 +8 +8 по сезону 1013.0 1012.3
21 17.05 В 2 >70 км {туман, дымка} 10/10 300 м
[]
+10.4 +9.1 92 +9 +9 по сезону 1012.8 1012.2
22 17.05 В 3 55 км 10/10 270 м
[]
+10.3 +9.2 93 +8 +8 тепло 1012.8 1012.2
23 17.05 В 2 35 км 10/10 240 м
[]
+10.2 +9.3 94 +9 +9 тепло 1012.4 1011.8
00 18.05 В 2 3500 м дымка 10/10 90 м
[]
+10.0 +9.6 97 +8 +8 по сезону 1012.6 1012.0
01 18.05 В 2 700 м туман {ливн. осадки} ясно +9.9 +9.8 99 +8 +8 тепло 1013.0 1012.3
02 18.05 В 2 300 м туман ясно +9.9 +9.9 100 +8 +8 тепло 1012.9 1012.3 0.1
03 18.05 В 2 200 м туман ясно +10.0 +10.0 100 +8 +8 по сезону 1012.7 1012.0 0.1
04 18.05 В 2 200 м туман ясно +10.2 +10.2 100 +9 +9 тепло 1012.8 1012.2
05 18.05 В 3 3400 м в посл. час туман 10/10 60 м
[]
+10.6 +10.6 100 +8 +8 по сезону 1012.7 1012.1
06 18.05 В 3 1900 м в посл. час туман 10/10 60 м
[]
+10.5 +10.5 100 +8 +8 по сезону 1012.7 1012.1 +9.8 +11.0 0.0
07 18.05 В 2 300 м туман ясно +10.6 +10.6 100 +9 +15 по сезону 1012.9 1012.3
08 18.05 В 3 1000 м в посл. час туман 10/10 60 м
[]
+11.2 +11.0 99 +9 +9 по сезону 1012.9 1012.3
09 18.05 СВ 3 28 км 9/9 90 м
[]
+13.9 +12.2 89 +13 +14 по сезону 1013.1 1012.5
10 18.05 С 3 30 км 5/5 270 м
[]
+15.2 +12.4 83 +15 +21 тепло 1012.8 1012.2
11 18.05 С 3 35 км ясно +16.5 +13.0 80 +16 +28 опасность
простуды
1012.6 1012.0
12 18.05 С 3 40 км ясно +16.6 +12.7 78 +16 +28 опасность
простуды
1012.4 1011.8
13 18.05 В 3 35 км 4/4 1020 м
[]
+19.0 +13.5 70 +20 +27 тепло 1012.2 1011.6
14 18.05 ЮВ 2 40 км 1/1 930 м
[]
+19.1 +12.6 66 +21 +30 комфорт 1011.7 1011.0
15 18.05 С 2 45 км ясно +19.1 +12.4 65 +21 +28 комфорт 1011.3 1010.7
16 18.05 В 5 55 км 1/0
[]
+19.5 +11.4 59 +20 +23 тепло 1011.1 1010.4
17 18.05 В 7 29 км ясно +17.2 +12.5 74 +16 +17 тепло 1011.0 1010.4
18 18.05 В 4 30 км ясно +15.4 +12.1 81 +14 +15 тепло 1011.3 1010.7 +10.1 +20.2
19 18.05 СВ 2 24 км 8/8 1440 м
[]
+14.4 +12.2 87 +14 +14 тепло 1011.3 1010.7
20 18.05 В 4 15 км 5/5 1500 м
[]
+13.9 +12.5 91 +12 +12 тепло 1011.4 1010.8
21 18.05 В 5 14 км ясно +12.6 +11.7 94 +10 +10 по сезону 1011.6 1011.0
22 18.05 В 5 13 км 10/10 120 м
[]
+12.6 +11.9 95 +10 +10 тепло 1011.7 1011.1
23 18.05 В 4 2300 м дымка 10/10 60 м
[]
+12.5 +12.3 99 +11 +11 тепло 1011.4 1010.8
00 19.05 СВ 3 11 км 10/10 60 м
[]
+12.8 +12.6 99 +11 +11 тепло 1011.0 1010.3
01 19.05 В 5 25 км 10/10 120 м
[]
+13.1 +12.3 95 +11 +11 тепло 1011.0 1010.4
02 19.05 СВ 5 28 км 10/10 180 м
[]
+13.1 +12.2 94 +11 +11 тепло 1010.8 1010.2
03 19.05 СВ 4 20 км 10/10 120 м
[]
+12.8 +12.1 96 +11 +11 тепло 1010.9 1010.2
04 19.05 В 4 25 км 10/10 120 м
[]
+12.8 +12.2 96 +11 +11 тепло 1010.8 1010.2
05 19.05 В 4 25 км 10/10 120 м
[]
+13.1 +12.3 95 +11 +11 тепло 1011.0 1010.3
06 19.05 В 3 28 км 10/10 150 м
[]
+13.2 +12.2 94 +12 +12 тепло 1010.8 1010.2 +12.4 +15.5
07 19.05 В 3 45 км 10/10 150 м
[]
+14.2 +12.5 90 +13 +13 тепло 1010.9 1010.3
08 19.05 В 4 40 км 9/9 240 м
[]
+15.7 +13.2 85 +15 +16 тепло 1011.1 1010.5
09 19.05 СВ 3 45 км ясно +16.2 +12.9 81 +16 +27 тепло 1010.9 1010.3
10 19.05 С 3 50 км ясно +17.4 +13.5 78 +18 +30 опасность
простуды
1010.6 1010.0
11 19.05 С 4 45 км ясно +18.3 +13.7 75 +19 +30 тепло 1010.4 1009.8
12 19.05 С 3 45 км ясно +18.6 +13.9 74 +19 +31 опасность
простуды
1010.5 1009.9
13 19.05 С 4 50 км ясно +19.2 +14.3 73 +21 +30 комфорт 1010.2 1009.6
14 19.05 СВ 3 50 км ясно +19.8 +14.6 72 +22 +30 комфорт 1010.0 1009.4
15 19.05 В 5 50 км {дымка} ясно +19.9 +14.3 70 +22 +26 комфорт 1009.8 1009.2
16 19.05 В 3 50 км ясно +19.6 +13.8 69 +22 +25 комфорт 1009.3 1008.7
17 19.05 В 5 45 км ясно +19.4 +14.3 72 +21 +22 комфорт 1008.9 1008.3
18 19.05 В 4 50 км ясно +17.6 +14.4 82 +17 +18 тепло 1009.1 1008.4 +13.1 +20.9
19 19.05 В 4 40 км 9/9 420 м
[]
+16.2 +13.9 86 +16 +16 тепло 1009.7 1009.0
20 19.05 В 4 45 км 9/9 420 м
[]
+16.3 +14.1 87 +16 +16 тепло 1009.4 1008.8
21 19.05 В 3 30 км в посл. час дождь {ливн. осадки} 9/9 400 м
[]
+15.4 +14.1 92 +15 +15 тепло 1009.2 1008.6 0.0
22 19.05 В 3 30 км 10/10 270 м
[]
+15.1 +13.9 93 +14 +14 тепло 1009.0 1008.4
23 19.05 СВ 3 30 км 10/10 300 м
[]
+15.0 +13.9 93 +14 +14 тепло 1008.7 1008.1
00 20.05 С 2 27 км 9/9 240 м
[]
+15.2 +14.2 94 +15 +15 тепло 1008.2 1007.6
01 20.05 С 3 15 км 10/10 180 м
[]
+15.2 +14.4 95 +15 +15 тепло 1007.9 1007.2
02 20.05 С 2 15 км 10/10 150 м
[]
+14.7 +13.9 95 +14 +14 тепло 1007.5 1006.9
03 20.05 СВ 2 4800 м дымка 10/10 150 м
[]
+14.2 +13.8 97 +14 +14 тепло 1007.4 1006.8
04 20.05 СВ 1 6000 м дымка 10/10 150 м
[]
+14.3 +13.9 97 +15 +15 тепло 1007.4 1006.8
05 20.05 СВ 2 17 км 10/10 150 м
[]
+14.6 +14.0 96 +14 +14 тепло 1007.4 1006.7
06 20.05 СВ 2 11 км 10/10 90 м
[]
+14.3 +13.7 96 +14 +14 тепло 1007.3 1006.7 +14.1 +17.7
07 20.05 С 3 12 км 10/10 120 м
[]
+15.0 +13.9 93 +14 +14 тепло 1007.4 1006.8
08 20.05 СВ 2 20 км 10/10 180 м
[]
+15.0 +13.5 91 +15 +15 тепло 1007.8 1007.2
09 20.05 СВ 2 21 км 9/9 180 м
[]
+15.7 +13.8 88 +16 +17 тепло 1007.7 1007.1
10 20.05 22 км 4/4 240 м
[]
+16.2 +13.7 85 1007.7 1007.1
11 20.05 СВ 4 23 км 1/1 270 м
[]
+16.8 +14.6 87 +16 +26 тепло 1007.9 1007.3
12 20.05 С 4 26 км ясно +18.2 +14.6 80 +18 +28 тепло 1008.0 1007.4
13 20.05 С 4 35 км ясно +19.2 +14.3 73 +21 +30 комфорт 1007.7 1007.1
14 20.05 С 5 55 км ясно +20.7 +13.9 65 +23 +29 комфорт 1007.1 1006.5
15 20.05 С 4 55 км ясно +20.3 +13.8 66 +23 +28 комфорт 1006.8 1006.2
16 20.05 С 6 45 км ясно +20.7 +14.2 66 +23 +25 комфорт 1006.7 1006.1
17 20.05 С 6 35 км ясно +20.0 +14.8 72 +22 +23 комфорт 1006.5 1005.9
18 20.05 С 5
{12}
50 км ясно +18.7 +13.8 73 +19 +20 тепло 1006.6 1006.0 +14.1 +21.3
19 20.05 С 7 60 км 9/0
[]
+18.1 +13.6 75 +17 +17 тепло 1006.5 1005.9
20 20.05 С 6 65 км 10/0
[]
+17.2 +13.0 76 +16 +16 тепло 1007.0 1006.4
21 20.05 С 8 65 км 9/0
[]
+16.3 +12.6 79 +15 +15 тепло 1006.3 1005.7
22 20.05 С 7 60 км 9/0
[]
+16.1 +12.6 80 +15 +15 тепло 1006.5 1005.9
23 20.05 С 6 60 км 9/9 1000 м
[]
+15.4 +12.6 83 +14 +14 тепло 1006.3 1005.7
00 21.05 С 6 65 км 9/9 1050 м
[]
+15.9 +12.4 80 +15 +15 тепло 1005.8 1005.2
01 21.05 СЗ 4 6000 м дождь 10/10 720 м
[]
+15.0 +13.7 92 +14 +14 тепло 1006.0 1005.4
02 21.05 З 2 50 км в посл. час дождь {ливн. осадки} 9/9 700 м
[]
+15.7 +14.0 90 +16 +16 тепло 1005.7 1005.1
03 21.05 С 4 35 км в посл. час дождь {ливн. осадки} 9/0
[]
+15.6 +14.3 92 +15 +15 тепло 1005.4 1004.8 0.3
04 21.05 С 5 30 км 10/0
[]
+15.7 +14.2 91 +15 +15 тепло 1005.3 1004.6
05 21.05 С 5 25 км 9/0
[]
+15.6 +14.1 91 +14 +15 тепло 1005.3 1004.7
06 21.05 С 5 18 км 4/4 1260 м
[]
+15.4 +14.0 91 +14 +15 тепло 1005.3 1004.7 +14.9 +18.9
07 21.05 С 2 20 км 9/9 1300 м
[]
+15.8 +14.2 90 +16 +16 тепло 1005.6 1005.0
08 21.05 С 4 21 км 9/9 360 м
[]
+17.0 +14.9 87 +16 +17 тепло 1006.0 1005.4
09 21.05 ЮВ 2 12 км слаб. дождь 8/8 300 м
[]
+15.4 +14.2 93 +15 +18 тепло 1005.9 1005.3 0.0
10 21.05 С 1 21 км в посл. час дождь {ливн. осадки} 5/5 240 м
[]
+17.8 +16.0 89 +19 +27 тепло 1005.9 1005.3 0.1
11 21.05 С 1 28 км в посл. час дождь {ливн. осадки} 10/10 420 м
[]
+18.0 +15.2 84 +20 +20 тепло 1006.4 1005.8
12 21.05 ЮЗ 2 21 км 10/10 450 м
[]
+17.4 +15.5 89 +18 +18 тепло 1006.5 1005.9 0.0
13 21.05 ЮЗ 1 6000 м слаб. ливневой дождь 10/10 360 м
[]
+17.0 +15.9 93 +18 +18 тепло 1006.7 1006.1 0.2
14 21.05 Ю 3 10 км {ливн. осадки} 10/10 300 м
[]
+13.5 +12.6 94 +12 +12 по сезону 1007.2 1006.6
15 21.05 Ю 3 4300 м дымка 10/10 90 м
[]
+13.7 +13.2 97 +12 +12 по сезону 1007.0 1006.4 0.2
16 21.05 Ю 3 4000 м дымка 10/10 90 м
[]
+12.7 +12.3 97 +11 +11 тепло 1007.2 1006.6
17 21.05 ЮЗ 2 1700 м дымка 10/10 60 м
[]
+12.6 +12.4 99 +12 +12 тепло 1007.5 1006.9
18 21.05 ЮЗ 1 1400 м слаб. ливневой дождь 10/10 60 м
[]
+13.1 +13.0 99 +13 +13 по сезону 1007.8 1007.2 +12.4 +18.8
19 21.05 Ю 1 4500 м дымка {ливн. осадки} 10/10 60 м
[]
+13.2 +13.0 99 +13 +13 тепло 1008.3 1007.7
20 21.05 Ю 2 800 м туман ясно +12.3 +12.1 99 +11 +11 тепло 1008.5 1007.9
21 21.05 Ю 2 400 м туман ясно +12.3 +12.3 100 +12 +12 тепло 1008.6 1008.0
22 21.05 Ю 2 300 м туман ясно +12.1 +12.1 100 +11 +11 тепло 1008.8 1008.2
23 21.05 Ю 3 400 м туман {ливн. осадки} ясно +11.8 +11.8 100 +10 +10 тепло 1008.8 1008.2
00 22.05 Ю 3 400 м туман ясно +11.9 +11.9 100 +10 +10 тепло 1008.9 1008.2
01 22.05 ЮВ 2 300 м туман ясно +12.0 +12.0 100 +11 +11 тепло 1009.0 1008.4
02 22.05 ЮВ 2 400 м туман ясно +11.8 +11.8 100 +11 +11 тепло 1009.0 1008.4 0.1
03 22.05 штиль 0 800 м туман ясно +11.7 +11.7 100 +11 +11 тепло 1009.0 1008.4 0.2
04 22.05 В 1 500 м туман ясно +11.9 +11.9 100 +12 +12 тепло 1009.1 1008.5
05 22.05 В 1 20 км в посл. час туман 10/10 60 м
[]
+12.3 +12.3 100 +12 +12 тепло 1009.5 1008.8
06 22.05 СВ 1 1500 м дымка 10/10 60 м
[]
+12.6 +12.6 100 +12 +12 по сезону 1009.7 1009.1 +11.6 +13.4
07 22.05 С 1 3400 м дымка 10/10 90 м
[]
+12.8 +12.8 100 +13 +13 тепло 1010.0 1009.3
08 22.05 СЗ 1 8000 м дымка 10/10 120 м
[]
+13.4 +13.0 97 +14 +14 тепло 1010.4 1009.7
09 22.05 З 3 7000 м дымка 10/10 60 м
[]
+14.2 +13.8 97 +13 +13 по сезону 1010.4 1009.8
10 22.05 З 4 16 км 10/10 180 м
[]
+15.1 +14.1 94 +14 +14 тепло 1010.8 1010.1

 

Местоположение метеостанции Копенгаген (Дания): широта 55.62 долгота 12.65 высота над уровнем моря 5 м.

В архиве по умолчанию представлена погода в Копенгагене за последнюю неделю. Архивные данные за месяц целиком и за предыдущие месяцы, начиная с января 2011 года, Вы можете получить, выбрав интересующий диапазон дат из раскрывающегося списка и нажав кнопку "Ввод!".


*Определитесь, кто Вы:
робот инопланетянин человек

Внимание! Время в таблицах - всемирное. Для получения местного времени необходимо прибавить поправку, которая равна 1 ч.

Смотрите также архив погоды в соседних городах и на ближайших метеорологических станциях:

Погода на Дрогдене (Дания) (11 км)
Погода в Копенгагене Jaegers (Дания) (17 км)
Погода в Мальмё (Швеция) (27 км)
Погода в Фальстербу АМС (Швеция) (29 км)
Погода в Фальстербу (Швеция) (29 км)
Погода в Сяелсмарке (Дания) (33 км)
Погода в Роскилле (Дания) (33 км)
Погода в Кёге (Дания) (40 км)
Погода в Мальмё аэропорту (Швеция) (46 км)
Погода в Хельсингборге (Швеция) (46 км)

Пояснения к столбцам:

Ветер - указаны скорость ветра в м/с - средняя за 10 мин, порывы в срок и между сроками (в фигурных скобках) и направление, откуда дует ветер: С - северный, СВ - северо-восточный, В - восточный, ЮВ - юго-восточный, Ю - южный, ЮЗ - юго-западный, З - западный, СЗ - северо-западный.
Видимость - горизонтальная дальность видимости в метрах или километрах. При видимости от 1 до 10 км при отсутствии осадков обычно наблюдается дымка, при ухудшении видимости до 1 км и менее - туман. В сухую погоду видимость может ухудшаться дымом, пылью или мглою.
Явления - указаны атмосферные явления, наблюдавшиеся в срок или в последний час перед сроком; фигурными скобками обозначены явления, наблюдавшиеся между сроками (за 1-3 часа до срока); квадратными скобками обозначены град или гололедные отложения с указанием их диаметра в мм.
Облачность - указаны через наклонную черту общая и нижняя облачность в баллах и высота нижней границы облаков в метрах; квадратными скобками обозначены формы облаков: Ci - перистые, Cs - перисто-слоистые, Cc - перисто-кучевые, Ac - высококучевые, As - высокослоистые, Sc - слоисто-кучевые, Ns - слоисто-дождевые, Cu - кучевые, Cb - кучево-дождевые. Подробнее классификацию облаков см. в Атласе облаков (PDF).
T - Температура воздуха - температура, измеренная на высоте 2 м над землей.
Td - Температура точки росы - температура, при понижении до которой содержащийся в воздухе водяной пар достигнет насыщения.
f - Относительная влажность воздуха - влажноcть воздуха, измеренная на высоте 2 м над землей.
Te - Эффективная температура - температура, которую ощущает одетый по сезону человек в тени. Характеристика душности погоды. При расчете учитывается влияние влажности воздуха и скорости ветра на теплоощущения человека.
Tes - Эффективная температура на солнце - температура, которую ощущает человек, с поправкой на солнечный нагрев. Характеристика знойности погоды. Зависит от высоты солнца над горизонтом, облачности и скорости ветра. Ночью, в пасмурную погоду, а также при ветре 12 м/с и более поправка равна нулю.
P - Атмосферное давление - приведенное к уровню моря атмосферное давление.
Po - Атмосферное давление - измеренное на уровне метеостанции атмосферное давление.
Tmin - Минимальная температура - минимум температуры воздуха на высоте 2 м над землей.
Tmax - Максимальная температура - максимум температуры воздуха на высоте 2 м над землей.
R - Количество осадков - Количество выпавших осадков за период времени, мм. При наведении курсора мыши на число - период времени, за который выпало указанное количество осадков.
R24 - Количество осадков - Количество выпавших осадков за 24 часа, мм.
S - Снежный покров - Высота снежного покрова, см. При наведении курсора мыши на число - состояние снежного покрова и степень покрытия местности в баллах.